{"data":{"norad_id":48648,"intl_designator":"2021-044L","name":"STARLINK-2521","alt_names":[],"object_type":"PAYLOAD","status":"ACTIVE","operator":null,"country":"US","launch_date":"2021-05-26","launch_site_code":"AFETR","launch_vehicle":null,"mission":null,"orbit_class":"UNKNOWN","rcs_meters":null,"size_class":null,"mass_kg":null,"dimensions":null,"purposes":["comms"],"wikipedia_slug":null,"has_3d_model":false,"image_url":null,"decayed_at":null,"tle_current":{"epoch":"2026-09-19T19:17:49.967520Z","epoch_age_seconds":97418,"freshness":"FRESH","line1":"1 48648U 21044L   26262.80405055 -.00000802  00000+0 -14091-4 0  9996","line2":"2 48648  53.1588 290.6236 0001314  85.1511 274.9640 15.31693715293579","mean_motion":15.31693715,"eccentricity":0.0001314,"inclination_deg":53.1588,"raan_deg":290.6236,"arg_perigee_deg":85.1511,"mean_anomaly_deg":274.964,"bstar":-1.4091e-5,"rev_number":29357,"period_min":94.013573725476,"perigee_km":469.85878564867,"apogee_km":471.65867544666,"semimajor_km":6848.8957305477,"source":"CELESTRAK","updated_at":"2026-09-20T09:00:39.141170Z"}}}